When you browse on this site, cookies collect data to enhance your experience and personalize the content and advertising you see.
Visit our Privacy Policy to learn more. By continuing to use the site, you agree to this use of cookies and data.
  • Em Portugal
  • Lista de países
  • Para 7 dias
  • Temperatura da água
  • Mapa do tempo
  • Widgets de tempo
  • user-avatar
    Iniciar Sessão

    Previsão horária em Kandahar

    Hoje, 19 Fevereiro, Quarta-feira

    Tempo Temperatura Precipitação Vento Pressão Humidade
    00:00 +11°C° 0 mm 3 m/s 675 mmHg 50%
    01:00 +10°C° 0 mm 3 m/s 675 mmHg 54%
    02:00 +9°C° 0 mm 3 m/s 674 mmHg 57%
    03:00 +9°C° 0 mm 3 m/s 674 mmHg 60%
    04:00 +8°C° 0 mm 3 m/s 674 mmHg 63%
    05:00 +8°C° 0 mm 3 m/s 674 mmHg 66%
    06:00 +7°C° 0 mm 3 m/s 675 mmHg 69%
    07:00 +6°C° 0 mm 4 m/s 675 mmHg 72%
    08:00 +7°C° 0 mm 4 m/s 675 mmHg 68%
    09:00 +8°C° 0 mm 4 m/s 676 mmHg 63%
    10:00 +10°C° 0 mm 4 m/s 676 mmHg 58%
    11:00 +11°C° 0 mm 4 m/s 676 mmHg 54%
    12:00 +12°C° 0 mm 4 m/s 675 mmHg 50%
    13:00 +13°C° 0 mm 4 m/s 675 mmHg 46%
    14:00 +13°C° 0 mm 4 m/s 675 mmHg 44%
    15:00 +13°C° 0 mm 4 m/s 675 mmHg 41%
    16:00 +13°C° 0 mm 4 m/s 674 mmHg 39%
    17:00 +12°C° 0 mm 4 m/s 674 mmHg 43%
    18:00 +11°C° 0 mm 3 m/s 675 mmHg 46%
    19:00 +10°C° 0 mm 3 m/s 675 mmHg 50%
    20:00 +10°C° 0 mm 3 m/s 675 mmHg 52%
    21:00 +9°C° 0 mm 2 m/s 675 mmHg 54%
    22:00 +9°C° 0 mm 2 m/s 676 mmHg 56%
    23:00 +9°C° 0 mm 1 m/s 676 mmHg 57%

    Amanhã, 20 Fevereiro, Quinta-feira

    Tempo Temperatura Precipitação Vento Pressão Humidade
    00:00 +9°C° 0 mm 1 m/s 676 mmHg 58%
    01:00 +8°C° 0 mm 1 m/s 675 mmHg 60%
    02:00 +8°C° 0 mm 1 m/s 675 mmHg 59%
    03:00 +8°C° 0 mm 1 m/s 676 mmHg 58%
    04:00 +7°C° 0 mm 2 m/s 676 mmHg 57%
    05:00 +6°C° 0 mm 2 m/s 676 mmHg 57%
    06:00 +6°C° 0 mm 2 m/s 676 mmHg 56%
    07:00 +6°C° 0 mm 2 m/s 676 mmHg 56%
    08:00 +7°C° 0 mm 3 m/s 677 mmHg 49%
    09:00 +9°C° 0 mm 3 m/s 677 mmHg 42%
    10:00 +11°C° 0 mm 3 m/s 677 mmHg 36%
    11:00 +12°C° 0 mm 3 m/s 677 mmHg 32%
    12:00 +13°C° 0 mm 3 m/s 677 mmHg 28%
    13:00 +14°C° 0 mm 3 m/s 676 mmHg 25%
    14:00 +16°C° 0 mm 3 m/s 676 mmHg 23%
    15:00 +16°C° 0 mm 3 m/s 676 mmHg 22%
    16:00 +16°C° 0 mm 3 m/s 676 mmHg 20%
    17:00 +14°C° 0 mm 3 m/s 676 mmHg 26%
    18:00 +14°C° 0 mm 2 m/s 676 mmHg 31%
    19:00 +12°C° 0 mm 2 m/s 676 mmHg 36%
    20:00 +12°C° 0 mm 2 m/s 676 mmHg 37%
    21:00 +11°C° 0 mm 3 m/s 676 mmHg 38%
    22:00 +10°C° 0 mm 4 m/s 677 mmHg 38%
    23:00 +10°C° 0 mm 4 m/s 676 mmHg 40%

    Depois de amanhã, 21 Fevereiro, Sexta-feira

    Tempo Temperatura Precipitação Vento Pressão Humidade
    00:00 +10°C° 0 mm 4 m/s 676 mmHg 43%
    01:00 +8°C° 0 mm 4 m/s 676 mmHg 45%
    02:00 +8°C° 0 mm 4 m/s 676 mmHg 45%
    03:00 +8°C° 0 mm 5 m/s 676 mmHg 46%
    04:00 +8°C° 0 mm 5 m/s 675 mmHg 46%
    05:00 +8°C° 0 mm 4 m/s 676 mmHg 46%
    06:00 +8°C° 0 mm 4 m/s 676 mmHg 46%
    07:00 +9°C° 0 mm 3 m/s 677 mmHg 46%
    08:00 +10°C° 0 mm 4 m/s 677 mmHg 41%
    09:00 +11°C° 0 mm 6 m/s 677 mmHg 36%
    10:00 +12°C° 0 mm 7 m/s 677 mmHg 31%
    17:00 +18°C° 0 mm 4 m/s 677 mmHg 29%
    18:00 +17°C° 0 mm 4 m/s 677 mmHg 33%
    19:00 +15°C° 0 mm 4 m/s 677 mmHg 36%
    20:00 +14°C° 0 mm 3 m/s 678 mmHg 38%
    21:00 +14°C° 0 mm 3 m/s 678 mmHg 40%
    22:00 +13°C° 0 mm 3 m/s 678 mmHg 41%
    23:00 +13°C° 0 mm 3 m/s 678 mmHg 42%

    22 Fevereiro, Sábado

    Tempo Temperatura Precipitação Vento Pressão Humidade
    00:00 +12°C° 0 mm 3 m/s 678 mmHg 44%
    01:00 +12°C° 0 mm 3 m/s 678 mmHg 45%
    02:00 +12°C° 0 mm 3 m/s 677 mmHg 45%
    03:00 +11°C° 0 mm 3 m/s 677 mmHg 45%
    04:00 +11°C° 0 mm 4 m/s 677 mmHg 46%
    05:00 +11°C° 0 mm 4 m/s 677 mmHg 47%
    06:00 +11°C° 0 mm 4 m/s 678 mmHg 48%
    07:00 +11°C° 0 mm 4 m/s 678 mmHg 49%
    08:00 +13°C° 0 mm 4 m/s 679 mmHg 45%
    09:00 +14°C° 0 mm 4 m/s 680 mmHg 41%
    10:00 +16°C° 0 mm 5 m/s 680 mmHg 37%
    11:00 +19°C° 0 mm 4 m/s 680 mmHg 34%
    12:00 +20°C° 0 mm 3 m/s 679 mmHg 30%
    13:00 +21°C° 0 mm 2 m/s 679 mmHg 27%
    14:00 +21°C° 0 mm 2 m/s 679 mmHg 26%
    15:00 +21°C° 0 mm 2 m/s 679 mmHg 26%
    16:00 +22°C° 0 mm 1 m/s 678 mmHg 25%
    17:00 +20°C° 0 mm 2 m/s 679 mmHg 30%
    18:00 +19°C° 0 mm 2 m/s 679 mmHg 34%
    19:00 +18°C° 0 mm 2 m/s 679 mmHg 38%
    20:00 +17°C° 0 mm 2 m/s 679 mmHg 40%
    21:00 +16°C° 0 mm 3 m/s 679 mmHg 43%
    22:00 +14°C° 0 mm 3 m/s 678 mmHg 45%
    23:00 +14°C° 0 mm 3 m/s 678 mmHg 47%

    23 Fevereiro, Domingo

    Tempo Temperatura Precipitação Vento Pressão Humidade
    00:00 +13°C° 0 mm 3 m/s 678 mmHg 48%
    01:00 +12°C° 0 mm 4 m/s 677 mmHg 50%
    02:00 +12°C° 0 mm 3 m/s 677 mmHg 51%
    03:00 +12°C° 0 mm 3 m/s 677 mmHg 51%
    04:00 +11°C° 0 mm 3 m/s 676 mmHg 52%
    05:00 +11°C° 0 mm 3 m/s 676 mmHg 52%
    06:00 +11°C° 0 mm 4 m/s 677 mmHg 51%
    07:00 +11°C° 0 mm 4 m/s 677 mmHg 51%
    08:00 +13°C° 0 mm 4 m/s 678 mmHg 46%
    09:00 +14°C° 0 mm 4 m/s 678 mmHg 41%
    10:00 +16°C° 0 mm 5 m/s 678 mmHg 35%
    11:00 +18°C° 0 mm 4 m/s 678 mmHg 33%
    12:00 +20°C° 0 mm 4 m/s 678 mmHg 31%
    13:00 +21°C° 0 mm 3 m/s 678 mmHg 28%
    14:00 +21°C° 0 mm 3 m/s 677 mmHg 28%
    15:00 +22°C° 0 mm 3 m/s 677 mmHg 29%
    16:00 +22°C° 0 mm 3 m/s 677 mmHg 29%
    17:00 +20°C° 0 mm 3 m/s 677 mmHg 33%
    18:00 +19°C° 0 mm 3 m/s 677 mmHg 37%
    19:00 +18°C° 0 mm 3 m/s 677 mmHg 41%
    20:00 +17°C° 0 mm 3 m/s 677 mmHg 42%
    21:00 +17°C° 0 mm 3 m/s 677 mmHg 43%
    22:00 +16°C° 0 mm 3 m/s 677 mmHg 44%
    23:00 +16°C° 0 mm 3 m/s 676 mmHg 45%

    24 Fevereiro, Segunda-feira

    Tempo Temperatura Precipitação Vento Pressão Humidade
    00:00 +14°C° 0 mm 3 m/s 676 mmHg 46%
    01:00 +14°C° 0 mm 3 m/s 676 mmHg 46%
    02:00 +13°C° 0 mm 3 m/s 675 mmHg 47%
    03:00 +13°C° 0 mm 3 m/s 675 mmHg 48%
    04:00 +12°C° 0 mm 3 m/s 675 mmHg 48%
    05:00 +12°C° 0 mm 3 m/s 675 mmHg 49%
    06:00 +13°C° 0 mm 2 m/s 676 mmHg 49%
    07:00 +13°C° 0 mm 2 m/s 676 mmHg 49%
    08:00 +14°C° 0 mm 2 m/s 677 mmHg 45%
    09:00 +16°C° 0 mm 2 m/s 677 mmHg 40%
    10:00 +17°C° 0 mm 2 m/s 678 mmHg 35%
    11:00 +18°C° 0 mm 2 m/s 677 mmHg 33%
    12:00 +20°C° 0 mm 1 m/s 677 mmHg 32%
    13:00 +21°C° 0 mm 1 m/s 677 mmHg 30%
    14:00 +22°C° 0 mm 1 m/s 676 mmHg 29%
    15:00 +22°C° 0 mm 1 m/s 676 mmHg 29%
    16:00 +21°C° 0 mm 2 m/s 676 mmHg 28%
    17:00 +21°C° 0 mm 1 m/s 676 mmHg 33%
    18:00 +20°C° 0 mm 1 m/s 676 mmHg 38%
    19:00 +19°C° 0 mm 1 m/s 676 mmHg 43%
    20:00 +18°C° 0 mm 1 m/s 676 mmHg 44%
    21:00 +16°C° 0 mm 1 m/s 677 mmHg 44%
    22:00 +16°C° 0 mm 1 m/s 677 mmHg 45%
    23:00 +15°C° 0 mm 2 m/s 677 mmHg 45%
    Mostrar mais